IBE14N HESH-LTAC

Flight info

Callsign IBE14N
Flight time N/A
Altitude 38000
Route NOVPA2L NOVPA J981 DATOK L550 PASOS/N0443F370 DCT VESAR/N0449F380 UB545 MUT UA28 TELVO
Aircraft A320/M-SDE3FGHIRWY/LB1

Departure

Time 2026-05-06 11:33
Airport Sharm El Sheikh International Airport (HESH)

Arrival

Time N/A
Airport Esenboğa International Airport (LTAC)
Time Latitude Longitude Altitude Speed Heading
2026-05-06 11:27 27.97697 34.38564 136 ft 0 kts 158°
2026-05-06 11:32 27.97619 34.38563 136 ft 32 kts 183°
2026-05-06 11:32 27.97342 34.38643 140 ft 28 kts 133°
2026-05-06 11:32 27.97320 34.38750 140 ft 27 kts 40°
2026-05-06 11:32 27.97646 34.39101 135 ft 99 kts 40°
2026-05-06 11:33 27.98298 34.39773 140 ft 152 kts 43°
2026-05-06 11:33 27.99107 34.40610 693 ft 162 kts 36°
2026-05-06 11:33 28.00089 34.41257 1431 ft 166 kts 25°
2026-05-06 11:33 28.01165 34.41829 2032 ft 177 kts 25°
2026-05-06 11:34 28.02326 34.42435 2523 ft 191 kts 25°
2026-05-06 11:34 28.03578 34.43100 2998 ft 206 kts 25°
2026-05-06 11:34 28.04908 34.43822 3551 ft 223 kts 27°
2026-05-06 11:34 28.06352 34.44620 4059 ft 239 kts 25°
2026-05-06 11:35 28.07869 34.45469 4743 ft 246 kts 25°
2026-05-06 11:35 28.09416 34.46343 5501 ft 250 kts 25°
2026-05-06 11:35 28.10990 34.47234 6230 ft 256 kts 25°
2026-05-06 11:35 28.12642 34.48027 6918 ft 260 kts 14°
2026-05-06 11:36 28.14430 34.48384 7560 ft 267 kts
2026-05-06 11:36 28.16341 34.48416 8076 ft 282 kts 358°
2026-05-06 11:36 28.18336 34.48440 8782 ft 290 kts 358°
2026-05-06 11:36 28.20376 34.48468 9582 ft 295 kts 357°
2026-05-06 11:37 28.22452 34.48509 10252 ft 305 kts
2026-05-06 11:37 28.24618 34.48889 10664 ft 324 kts
2026-05-06 11:37 28.26884 34.49408 11051 ft 341 kts
2026-05-06 11:37 28.29252 34.49955 11564 ft 352 kts
2026-05-06 11:38 28.31664 34.50519 12276 ft 355 kts
2026-05-06 11:38 28.34098 34.51087 13023 ft 358 kts
2026-05-06 11:38 28.36549 34.51656 13772 ft 361 kts
2026-05-06 11:38 28.39024 34.52227 14418 ft 364 kts
2026-05-06 11:39 28.41520 34.52802 15040 ft 368 kts
2026-05-06 11:39 28.44044 34.53383 15663 ft 372 kts
2026-05-06 11:39 28.46593 34.53969 16288 ft 376 kts
2026-05-06 11:39 28.49168 34.54562 16909 ft 379 kts
2026-05-06 11:40 28.51764 34.55159 17522 ft 383 kts
2026-05-06 11:40 28.54392 34.55765 18145 ft 387 kts
2026-05-06 11:40 28.57042 34.56379 18699 ft 390 kts
2026-05-06 11:40 28.59712 34.57000 19234 ft 394 kts
2026-05-06 11:41 28.62412 34.57626 19777 ft 398 kts
2026-05-06 11:41 28.65102 34.58249 20315 ft 401 kts
2026-05-06 11:41 28.67850 34.58885 20854 ft 405 kts
2026-05-06 11:41 28.70623 34.59526 21397 ft 408 kts
2026-05-06 11:42 28.73422 34.60174 21926 ft 413 kts
2026-05-06 11:42 28.76250 34.60830 22459 ft 417 kts
2026-05-06 11:42 28.79100 34.61493 22982 ft 420 kts
2026-05-06 11:42 28.81980 34.62164 23465 ft 424 kts
2026-05-06 11:43 28.84886 34.62839 23901 ft 428 kts
2026-05-06 11:43 28.87811 34.63517 24322 ft 431 kts
2026-05-06 11:43 28.90758 34.64197 24731 ft 433 kts
2026-05-06 11:44 28.96686 34.65577 25555 ft 437 kts
2026-05-06 11:44 28.99684 34.66022 25957 ft 433 kts 356°
2026-05-06 11:44 29.02669 34.65790 26348 ft 428 kts 345°
2026-05-06 11:44 29.05517 34.64896 26727 ft 423 kts 334°
2026-05-06 11:45 29.08130 34.63403 27098 ft 419 kts 323°
2026-05-06 11:45 29.10565 34.61561 27469 ft 420 kts 322°
2026-05-06 11:45 29.13005 34.59707 27857 ft 422 kts 322°
2026-05-06 11:45 29.15458 34.57843 28238 ft 424 kts 322°
2026-05-06 11:46 29.17922 34.55971 28612 ft 426 kts 321°
2026-05-06 11:46 29.20396 34.54091 28993 ft 428 kts 321°
2026-05-06 11:46 29.22881 34.52203 29347 ft 430 kts 321°
2026-05-06 11:46 29.25373 34.50307 29686 ft 431 kts 321°
2026-05-06 11:47 29.27877 34.48397 30021 ft 433 kts 321°
2026-05-06 11:47 29.30360 34.46504 30288 ft 435 kts 321°
2026-05-06 11:47 29.32888 34.44579 30558 ft 437 kts 321°
2026-05-06 11:47 29.35422 34.42648 30811 ft 438 kts 321°
2026-05-06 11:48 29.37965 34.40712 31057 ft 440 kts 321°
2026-05-06 11:48 29.40517 34.38764 31296 ft 441 kts 321°
2026-05-06 11:48 29.43067 34.36813 31615 ft 440 kts 321°
2026-05-06 11:48 29.45610 34.34867 31967 ft 439 kts 321°
2026-05-06 11:49 29.48148 34.32924 32319 ft 438 kts 321°
2026-05-06 11:49 29.50676 34.30989 32665 ft 437 kts 320°
2026-05-06 11:49 29.53202 34.29056 33012 ft 436 kts 320°
2026-05-06 11:49 29.55719 34.27126 33373 ft 435 kts 320°
2026-05-06 11:50 29.58232 34.25200 33708 ft 434 kts 320°
2026-05-06 11:50 29.60759 34.23306 34058 ft 435 kts 323°
2026-05-06 11:50 29.63429 34.21653 34354 ft 436 kts 326°
2026-05-06 11:50 29.66113 34.20025 34638 ft 436 kts 326°
2026-05-06 11:51 29.68788 34.18402 34900 ft 435 kts 326°
2026-05-06 11:51 29.71463 34.16780 35166 ft 434 kts 326°
2026-05-06 11:51 29.74132 34.15155 35420 ft 434 kts 326°
2026-05-06 11:51 29.76799 34.13528 35670 ft 433 kts 325°
2026-05-06 11:52 29.79428 34.11923 35912 ft 433 kts 325°
2026-05-06 11:52 29.82123 34.10280 36155 ft 433 kts 325°
2026-05-06 11:52 29.84745 34.08680 36386 ft 432 kts 325°
2026-05-06 11:52 29.87402 34.07060 36613 ft 432 kts 325°
2026-05-06 11:53 29.90057 34.05442 36833 ft 431 kts 325°
2026-05-06 11:53 29.92713 34.03821 37047 ft 431 kts 325°
2026-05-06 11:53 29.95357 34.02205 37256 ft 430 kts 325°
2026-05-06 11:53 29.98004 34.00584 37464 ft 430 kts 325°
2026-05-06 11:54 30.00642 33.98967 37665 ft 430 kts 325°
2026-05-06 11:54 30.03284 33.97347 37876 ft 429 kts 325°
2026-05-06 11:54 30.05920 33.95729 38002 ft 429 kts 325°
2026-05-06 11:54 30.08548 33.94113 38025 ft 428 kts 325°
2026-05-06 11:55 30.13803 33.90876 38015 ft 428 kts 325°
2026-05-06 11:55 30.19053 33.87655 38019 ft 427 kts 325°
2026-05-06 11:56 30.24305 33.84425 38017 ft 427 kts 325°
2026-05-06 11:56 30.29545 33.81196 38028 ft 427 kts 325°
2026-05-06 11:57 30.34751 33.77985 38031 ft 426 kts 325°
2026-05-06 11:57 30.39979 33.74756 38041 ft 426 kts 325°
2026-05-06 11:58 30.45211 33.71525 38044 ft 426 kts 325°
2026-05-06 11:58 30.50429 33.68295 38048 ft 425 kts 325°
2026-05-06 11:59 30.55647 33.65053 38054 ft 425 kts 325°
2026-05-06 11:59 30.60858 33.61810 38057 ft 424 kts 325°
2026-05-06 12:00 30.66061 33.58572 38059 ft 424 kts 325°
2026-05-06 12:00 30.71260 33.55341 38061 ft 424 kts 325°
2026-05-06 12:01 30.76455 33.52112 38062 ft 423 kts 325°
2026-05-06 12:01 30.81641 33.48875 38066 ft 423 kts 325°
2026-05-06 12:02 30.86824 33.45634 38074 ft 422 kts 325°
2026-05-06 12:02 30.91964 33.42411 38074 ft 422 kts 325°
2026-05-06 12:03 30.97126 33.39176 38071 ft 421 kts 325°
2026-05-06 12:03 31.02289 33.35941 38073 ft 421 kts 325°
2026-05-06 12:04 31.07441 33.32708 38078 ft 420 kts 325°
2026-05-06 12:04 31.12591 33.29480 38063 ft 420 kts 325°
2026-05-06 12:05 31.17738 33.26237 38068 ft 420 kts 325°
2026-05-06 12:05 31.22863 33.22993 38069 ft 419 kts 325°
2026-05-06 12:06 31.27993 33.19760 38069 ft 419 kts 325°
2026-05-06 12:06 31.33122 33.16525 38072 ft 419 kts 326°
2026-05-06 12:07 31.38701 33.14290 38068 ft 435 kts 345°
2026-05-06 12:07 31.44821 33.13863 38070 ft 442 kts 350°
2026-05-06 12:08 31.50956 33.13567 38070 ft 441 kts 350°
2026-05-06 12:08 31.57089 33.13257 38076 ft 441 kts 350°
2026-05-06 12:09 31.63219 33.12947 38072 ft 441 kts 350°
2026-05-06 12:09 31.69306 33.12642 38075 ft 440 kts 350°
2026-05-06 12:10 31.75423 33.12330 38073 ft 440 kts 350°
2026-05-06 12:10 31.81537 33.12023 38065 ft 440 kts 350°
2026-05-06 12:11 31.87660 33.11717 38064 ft 440 kts 350°
2026-05-06 12:11 31.93783 33.11411 38066 ft 440 kts 350°
2026-05-06 12:12 31.99903 33.11099 38067 ft 440 kts 350°
2026-05-06 12:12 32.06021 33.10790 38064 ft 440 kts 350°
2026-05-06 12:13 32.12136 33.10478 38059 ft 440 kts 350°
2026-05-06 12:13 32.18260 33.10170 38067 ft 440 kts 350°
2026-05-06 12:14 32.24429 33.10636 38062 ft 453 kts
2026-05-06 12:14 32.30610 33.12123 38061 ft 453 kts
2026-05-06 12:15 32.36794 33.13599 38057 ft 453 kts
2026-05-06 12:15 32.42976 33.15071 38057 ft 453 kts
2026-05-06 12:16 32.49157 33.16548 38059 ft 453 kts
2026-05-06 12:16 32.55297 33.18014 38058 ft 453 kts
2026-05-06 12:17 32.61473 33.19490 38044 ft 453 kts
2026-05-06 12:17 32.67643 33.20967 38062 ft 452 kts
2026-05-06 12:18 32.73806 33.22438 38064 ft 451 kts
2026-05-06 12:18 32.79953 33.23919 38069 ft 450 kts
2026-05-06 12:19 32.86093 33.25408 38066 ft 450 kts
2026-05-06 12:19 32.92239 33.26887 38070 ft 450 kts
2026-05-06 12:20 32.98376 33.28355 38067 ft 450 kts
2026-05-06 12:20 33.04514 33.29834 38070 ft 450 kts
2026-05-06 12:21 33.10616 33.31311 38064 ft 450 kts
2026-05-06 12:21 33.16749 33.32795 38069 ft 450 kts
2026-05-06 12:22 33.22880 33.34284 38067 ft 450 kts
2026-05-06 12:22 33.29014 33.35774 38064 ft 450 kts
2026-05-06 12:23 33.35145 33.37265 38061 ft 450 kts
2026-05-06 12:23 33.41274 33.38761 38062 ft 449 kts
2026-05-06 12:24 33.47395 33.40251 38060 ft 449 kts
2026-05-06 12:24 33.52488 33.41491 38061 ft 449 kts
2026-05-06 12:25 33.58611 33.42981 38056 ft 449 kts
2026-05-06 12:25 33.64739 33.44476 38056 ft 449 kts
2026-05-06 12:26 33.70861 33.45977 38060 ft 449 kts
2026-05-06 12:26 33.76983 33.47487 38064 ft 449 kts
2026-05-06 12:27 33.83109 33.48994 38067 ft 449 kts
2026-05-06 12:27 33.89227 33.50491 38068 ft 449 kts
2026-05-06 12:28 33.95307 33.51988 38066 ft 449 kts
2026-05-06 12:28 34.01425 33.53497 38062 ft 449 kts
2026-05-06 12:29 34.07541 33.55005 38058 ft 449 kts
2026-05-06 12:29 34.13658 33.56525 38059 ft 449 kts
2026-05-06 12:30 34.19771 33.58051 38060 ft 449 kts
2026-05-06 12:30 34.25890 33.59567 38057 ft 449 kts
2026-05-06 12:31 34.32003 33.61088 38054 ft 448 kts
2026-05-06 12:31 34.38112 33.62610 38055 ft 448 kts
2026-05-06 12:32 34.44222 33.64125 38053 ft 448 kts
2026-05-06 12:32 34.50333 33.65649 38048 ft 448 kts
2026-05-06 12:33 34.56443 33.67186 38039 ft 448 kts
2026-05-06 12:33 34.62515 33.68712 38033 ft 448 kts
2026-05-06 12:34 34.68627 33.70249 38022 ft 448 kts
2026-05-06 12:34 34.74752 33.71779 38021 ft 449 kts
2026-05-06 12:35 34.80866 33.73333 38007 ft 449 kts
2026-05-06 12:35 34.86986 33.74885 38005 ft 449 kts
2026-05-06 12:36 34.93114 33.76433 38008 ft 449 kts
2026-05-06 12:36 34.99240 33.77972 38012 ft 450 kts
2026-05-06 12:37 35.05372 33.79510 38016 ft 450 kts
2026-05-06 12:37 35.11500 33.81073 38025 ft 450 kts
2026-05-06 12:38 35.17624 33.82642 38031 ft 450 kts
2026-05-06 12:38 35.23756 33.84192 38036 ft 450 kts
2026-05-06 12:39 35.29844 33.85740 38040 ft 450 kts
2026-05-06 12:39 35.35971 33.87297 38035 ft 450 kts
2026-05-06 12:40 35.42099 33.88868 38029 ft 449 kts
2026-05-06 12:40 35.48216 33.90436 38022 ft 449 kts
2026-05-06 12:41 35.54330 33.92000 38020 ft 449 kts
2026-05-06 12:41 35.60447 33.93569 38023 ft 449 kts
2026-05-06 12:42 35.66560 33.95146 38037 ft 449 kts
2026-05-06 12:42 35.72660 33.96728 38041 ft 448 kts
2026-05-06 12:43 35.78767 33.98303 38037 ft 448 kts
2026-05-06 12:43 35.84872 33.99876 38037 ft 447 kts
2026-05-06 12:44 35.90964 34.00059 38028 ft 433 kts 345°
2026-05-06 12:44 35.96542 33.97806 38013 ft 421 kts 327°
2026-05-06 12:45 36.01537 33.94077 38005 ft 419 kts 324°
2026-05-06 12:46 36.09006 33.88433 38007 ft 420 kts 324°
2026-05-06 12:46 36.13992 33.84664 38025 ft 420 kts 324°
2026-05-06 12:47 36.18973 33.80882 38019 ft 420 kts 324°
2026-05-06 12:47 36.23949 33.77096 38033 ft 420 kts 324°
2026-05-06 12:48 36.28930 33.73302 38036 ft 420 kts 324°
2026-05-06 12:48 36.33913 33.69501 38035 ft 420 kts 325°
2026-05-06 12:49 36.38888 33.65708 38020 ft 420 kts 325°
2026-05-06 12:49 36.43871 33.61900 38019 ft 421 kts 324°
2026-05-06 12:50 36.48836 33.58083 38029 ft 419 kts 324°
2026-05-06 12:50 36.53800 33.54274 38030 ft 419 kts 325°
2026-05-06 12:51 36.58729 33.50486 38030 ft 419 kts 324°
2026-05-06 12:51 36.63690 33.46671 38028 ft 419 kts 325°
2026-05-06 12:52 36.68643 33.42850 38031 ft 419 kts 325°
2026-05-06 12:52 36.73595 33.39028 38027 ft 419 kts 325°
2026-05-06 12:53 36.78524 33.35224 38027 ft 418 kts 325°
2026-05-06 12:53 36.83493 33.31388 38030 ft 418 kts 327°
2026-05-06 12:54 36.88983 33.28841 38015 ft 428 kts 346°
2026-05-06 12:54 36.94926 33.27915 38022 ft 431 kts 349°
2026-05-06 12:55 37.00883 33.27039 38031 ft 431 kts 349°
2026-05-06 12:55 37.06844 33.26164 38037 ft 431 kts 349°
2026-05-06 12:56 37.12805 33.25286 38042 ft 432 kts 349°
2026-05-06 12:56 37.18769 33.24409 38046 ft 432 kts 349°
2026-05-06 12:57 37.24736 33.23532 38044 ft 431 kts 349°
2026-05-06 12:57 37.30695 33.22646 38049 ft 431 kts 349°
2026-05-06 12:58 37.36657 33.21756 38046 ft 431 kts 349°
2026-05-06 12:58 37.42597 33.20870 38049 ft 432 kts 349°
2026-05-06 12:59 37.48561 33.19976 38051 ft 432 kts 349°
2026-05-06 12:59 37.54521 33.19090 38054 ft 431 kts 349°
2026-05-06 13:00 37.60480 33.18196 38059 ft 431 kts 349°
2026-05-06 13:00 37.66438 33.17304 38061 ft 431 kts 349°
2026-05-06 13:01 37.72393 33.16405 38067 ft 431 kts 349°
2026-05-06 13:01 37.78346 33.15511 38071 ft 430 kts 349°
2026-05-06 13:02 37.84291 33.14621 38074 ft 430 kts 349°
2026-05-06 13:02 37.90236 33.13732 38077 ft 430 kts 349°
2026-05-06 13:03 37.96183 33.12839 38075 ft 430 kts 349°
2026-05-06 13:03 38.02122 33.11945 38079 ft 430 kts 349°
2026-05-06 13:04 38.08064 33.11071 38086 ft 430 kts 349°
2026-05-06 13:04 38.13974 33.10230 38088 ft 430 kts 349°
2026-05-06 13:05 38.19915 33.09364 38087 ft 429 kts 349°
2026-05-06 13:05 38.25849 33.08489 38088 ft 429 kts 349°
2026-05-06 13:06 38.31782 33.07625 38086 ft 429 kts 349°
2026-05-06 13:06 38.37707 33.06762 38081 ft 429 kts 349°
2026-05-06 13:07 38.43641 33.05889 38079 ft 429 kts 349°
2026-05-06 13:07 38.49574 33.05015 38074 ft 429 kts 349°
2026-05-06 13:07 38.52551 33.04577 37827 ft 429 kts 349°
2026-05-06 13:08 38.55515 33.04141 37551 ft 428 kts 349°
2026-05-06 13:08 38.58473 33.03704 37286 ft 428 kts 349°
2026-05-06 13:08 38.61427 33.03267 37025 ft 427 kts 349°
2026-05-06 13:08 38.64382 33.02828 36769 ft 427 kts 350°
2026-05-06 13:09 38.67325 33.02391 36511 ft 426 kts 350°
2026-05-06 13:09 38.70267 33.01957 36260 ft 425 kts 350°
2026-05-06 13:09 38.73205 33.01525 36010 ft 425 kts 350°
2026-05-06 13:09 38.76140 33.01092 35766 ft 424 kts 350°
2026-05-06 13:10 38.79064 33.00659 35523 ft 423 kts 350°
2026-05-06 13:10 38.81945 33.00227 35285 ft 422 kts 350°
2026-05-06 13:10 38.84858 32.99792 35051 ft 421 kts 350°
2026-05-06 13:10 38.87766 32.99359 34816 ft 420 kts 350°
2026-05-06 13:11 38.90672 32.98929 34578 ft 419 kts 350°
2026-05-06 13:11 38.93554 32.98503 34341 ft 416 kts 350°
2026-05-06 13:11 38.96423 32.98080 34114 ft 413 kts 350°
2026-05-06 13:11 38.99262 32.97663 33842 ft 410 kts 350°
2026-05-06 13:12 39.02091 32.97246 33563 ft 408 kts 350°
2026-05-06 13:12 39.04901 32.96829 33290 ft 405 kts 350°
2026-05-06 13:12 39.07692 32.96410 33027 ft 403 kts 350°
2026-05-06 13:12 39.10469 32.95992 32765 ft 401 kts 350°
2026-05-06 13:13 39.13231 32.95579 32506 ft 399 kts 350°
2026-05-06 13:13 39.15977 32.95169 32247 ft 396 kts 350°
2026-05-06 13:13 39.18712 32.94757 31991 ft 395 kts 350°
2026-05-06 13:13 39.21432 32.94348 31737 ft 393 kts 350°
2026-05-06 13:14 39.24146 32.93952 31480 ft 391 kts 350°
2026-05-06 13:14 39.26843 32.93575 31233 ft 389 kts 350°
2026-05-06 13:14 39.29530 32.93212 30984 ft 387 kts 351°
2026-05-06 13:14 39.32207 32.92854 30740 ft 386 kts 350°
2026-05-06 13:15 39.34868 32.92496 30492 ft 384 kts 351°
2026-05-06 13:15 39.37544 32.92423 30252 ft 387 kts 360°
2026-05-06 13:15 39.40183 32.92892 29988 ft 389 kts
2026-05-06 13:15 39.42842 32.93517 29697 ft 387 kts
2026-05-06 13:16 39.45481 32.94129 29431 ft 385 kts
2026-05-06 13:16 39.48114 32.94733 29152 ft 383 kts
2026-05-06 13:16 39.50736 32.95332 28870 ft 381 kts
2026-05-06 13:16 39.53340 32.95926 28598 ft 380 kts
2026-05-06 13:17 39.55937 32.96520 28328 ft 378 kts
2026-05-06 13:17 39.58521 32.97111 28059 ft 376 kts
2026-05-06 13:17 39.61077 32.97767 27737 ft 371 kts 11°
2026-05-06 13:17 39.63481 32.98894 27294 ft 365 kts 20°
2026-05-06 13:18 39.65712 33.00400 26847 ft 358 kts 23°
2026-05-06 13:18 39.67886 33.01895 26418 ft 349 kts 22°
2026-05-06 13:18 39.69295 33.02861 26146 ft 345 kts 22°
2026-05-06 13:18 39.71411 33.04309 25732 ft 343 kts 22°
2026-05-06 13:19 39.73519 33.05752 25309 ft 341 kts 23°
2026-05-06 13:19 39.75607 33.07182 24910 ft 339 kts 23°
2026-05-06 13:19 39.77687 33.08606 24502 ft 336 kts 23°
2026-05-06 13:19 39.79746 33.10016 24090 ft 334 kts 23°
2026-05-06 13:20 39.81795 33.11422 23653 ft 332 kts 23°
2026-05-06 13:20 39.83830 33.12820 23151 ft 330 kts 24°